Location: Saluda
(35.2377°N, 82.3468°W)
Time: 17:03:02
(UTC+00:00)

Transit 2A - Pass Details

Date: 08 October 2022
Orbit: 598 x 959 km, 66.7° (Epoch: 06 December)

Event Time Altitude Azimuth Distance (km) Brightness Sun altitude
Rises 13:12:09 0° 319° (NW) 3,056 8.6 19.3°
Reaches altitude 10° 13:14:38 10° 308° (NW) 2,191 7.9 19.8°
Maximum altitude 13:18:53 28° 250° (WSW) 1,388 7.1 20.6°
Drops below altitude 10° 13:23:28 10° 192° (SSW) 2,386 8.8 21.4°
Sets 13:26:19 0° 181° (S) 3,379 9.6 22.0°
